Temp
21 21 21 22 21 22 22 22 22 22 22 22 21 21 22 22 22 22 22 22 22 22 22 23 22 22 22 22 22 22 22 22 23 23 22 22 21 21 21 21 22 22 22 22 22 22 22 22 22 22 22 22 22 21 21 22 23 23 23 23 23 22 22 22 22 22 22 22 22 22 22 22 22 22 22 22 22 22 22 22 22 22 22 21 22
21 21 22 22 21 22 22 22 22 22 22 22 21 22 22 22 22 21 22 22 22 22 22 22 22 23 22 22 22 23 22 22 23 22 22 21 21 21 21 21 22 22 22 22 22 22 22 22 22 22 22 22 22 22 22 23 23 23 23 23 23 22 22 23 23 22 22 22 22 22 22 22 22 22 22 22 22 22 22 22 22 21 21 21 21
22 22 22 22 21 22 22 22 22 22 22 22 21 22 22 22 21 21 21 22 22 22 22 22 22 23 23 22 22 23 22 22 22 22 22 21 21 22 21 21 22 21 22 22 22 22 22 22 22 22 22 22 22 22 23 23 23 23 23 23 23 23 22 23 23 22 22 22 22 22 22 22 22 22 22 22 22 22 22 22 22 21 21 21 21
22 22 22 21 22 22 22 22 22 22 22 22 21 21 22 22 21 21 21 22 22 22 22 22 22 23 23 23 23 23 22 22 22 22 22 21 22 22 22 22 22 21 22 22 22 22 22 22 22 22 22 22 22 22 22 23 23 23 23 23 23 23 23 23 22 22 22 22 22 22 22 22 22 22 22 22 22 22 22 22 22 22 21 21 21
22 22 22 22 22 22 22 22 22 22 22 22 21 21 21 21 21 21 21 21 22 22 22 22 22 22 22 22 22 22 22 22 22 22 21 21 21 22 22 22 22 22 22 22 22 22 22 22 22 22 22 22 22 22 22 22 23 23 23 23 23 23 23 22 22 22 22 22 22 22 22 22 22 22 22 22 22 22 22 22 22 22 22 22 21
22 22 22 22 22 22 22 22 22 22 21 21 21 21 21 21 21 21 21 21 21 22 22 22 22 22 22 22 22 22 22 22 22 22 21 21 21 22 22 22 22 22 22 22 22 22 22 22 22 22 22 22 22 22 22 22 23 23 23 22 23 23 22 22 22 22 22 23 22 22 22 22 22 22 22 22 22 22 22 22 21 21 22 22 22
23 22 23 22 21 22 21 22 22 22 21 21 21 21 21 21 22 21 21 21 21 22 22 22 22 22 22 22 22 22 22 22 21 21 21 21 21 21 22 21 21 22 22 22 22 22 22 22 22 22 22 22 22 22 22 22 23 23 23 22 23 23 22 22 22 22 23 23 23 23 22 22 22 22 22 22 22 22 22 21 21 21 21 21 21
23 22 22 22 21 22 22 22 22 21 21 21 21 21 21 21 21 21 21 21 21 22 22 22 21 22 22 22 22 21 21 21 21 21 21 21 21 22 22 21 21 21 22 22 22 22 22 22 22 22 22 22 22 22 22 23 23 23 23 23 23 23 23 22 22 23 23 23 23 23 22 22 21 22 22 22 22 21 21 21 21 21 21 21 21
24 23 23 22 22 22 21 21 21 21 21 21 21 21 21 21 21 21 21 21 21 22 22 22 21 21 22 22 21 21 21 21 22 22 21 21 21 22 22 21 21 22 22 22 22 22 22 22 22 22 22 22 22 22 22 23 23 23 23 23 23 23 23 22 22 23 23 23 23 23 23 22 21 21 22 22 22 21 21 21 21 21 21 21 21
24 23 23 22 21 22 21 21 21 21 22 22 22 22 22 22 21 21 21 21 21 22 22 22 21 22 22 22 22 21 22 22 23 22 21 21 21 22 22 21 22 22 22 22 22 22 22 22 22 22 22 22 22 22 22 22 22 23 23 23 23 23 23 23 23 23 23 23 23 23 23 22 22 21 22 22 22 21 21 21 21 21 21 21 21
24 23 22 22 21 22 21 21 21 22 22 22 22 21 22 22 22 21 21 21 21 22 22 22 22 22 21 21 22 22 22 22 22 22 21 22 21 21 21 21 22 22 22 22 22 22 22 22 22 22 22 22 22 23 23 22 22 23 23 23 23 23 23 23 23 23 23 23 23 23 22 22 22 22 22 22 22 21 21 21 21 21 21 21 21
24 23 22 22 22 22 22 21 21 22 23 22 21 21 21 22 22 21 21 21 21 22 22 22 22 22 21 21 22 22 22 22 22 22 22 21 21 21 21 21 22 22 22 22 22 22 22 22 22 22 22 23 23 23 23 23 23 23 23 23 24 24 23 23 23 23 23 23 23 23 22 22 21 22 22 22 22 21 21 21 21 21 21 21 21
24 23 22 22 22 23 23 22 21 22 22 22 21 21 21 22 21 21 21 21 21 22 22 22 22 21 21 21 21 22 22 22 22 21 21 21 21 22 22 21 22 22 22 22 22 22 22 22 22 22 22 23 23 23 23 23 23 23 24 24 24 24 24 23 23 23 23 23 23 23 22 21 21 22 22 22 22 22 22 21 21 21 20 20 20
24 23 22 22 22 23 23 23 22 23 23 22 21 21 21 22 21 21 20 21 21 22 21 21 21 22 22 21 21 22 22 22 22 21 21 21 21 22 22 22 22 21 22 22 22 22 22 22 22 22 22 23 23 23 23 23 24 24 24 24 24 24 24 24 24 24 24 24 23 23 22 21 21 22 22 22 22 22 22 22 21 21 20 20 20
25 24 23 22 22 23 23 23 23 23 23 22 21 22 22 21 21 21 20 21 21 21 21 21 21 21 22 22 22 22 21 22 22 21 21 21 22 22 22 22 22 22 22 22 22 22 22 22 23 23 23 23 23 23 23 24 24 24 24 24 24 24 24 24 25 25 25 24 24 23 21 21 21 21 21 21 21 21 21 21 21 21 20 20 20
25 24 23 22 22 22 22 22 22 22 22 22 22 22 21 21 21 21 21 21 21 21 21 21 21 22 22 22 22 22 21 22 22 21 21 21 21 22 22 22 22 22 22 22 22 22 22 23 23 23 23 23 23 23 23 24 24 24 24 24 25 25 25 25 25 25 25 25 24 23 22 21 21 21 21 21 21 20 20 20 20 20 20 20 20
25 24 24 23 22 22 22 22 22 22 22 22 21 21 21 21 21 21 21 21 21 21 21 21 21 22 22 22 22 21 21 21 22 21 21 21 21 21 22 22 22 22 22 22 22 22 22 23 23 23 23 23 23 23 23 24 24 24 24 25 25 25 25 25 25 26 25 25 24 22 22 22 21 21 21 21 20 20 20 20 20 20 20 20 20
24 24 24 23 22 22 22 22 22 21 22 22 21 21 21 21 21 21 21 21 21 21 21 21 21 22 22 22 22 21 21 21 22 22 21 22 22 21 22 22 22 22 22 22 22 22 22 23 23 23 23 23 23 23 23 24 24 24 25 25 25 25 25 25 26 26 26 25 24 23 23 23 22 21 21 20 20 20 20 20 20 20 20 20 20
25 24 24 23 23 23 22 22 22 22 22 22 21 21 21 21 21 21 21 21 21 21 21 21 21 22 22 22 22 21 21 21 22 22 21 21 22 21 22 22 22 22 22 22 22 22 22 23 23 23 23 23 23 23 23 24 25 25 25 25 25 26 26 26 26 26 25 24 24 24 24 23 23 22 21 20 20 20 20 20 20 20 20 20 20
25 25 24 24 23 23 23 22 22 22 22 22 21 21 21 21 21 21 21 21 21 21 21 21 21 21 22 22 21 21 21 21 22 22 21 21 22 21 22 22 22 23 23 23 23 23 23 23 23 23 23 23 23 23 24 24 25 25 25 25 25 25 26 26 26 26 26 24 24 24 24 24 24 23 22 21 20 20 20 20 20 20 21 21 21
26 25 24 24 23 23 23 22 22 22 22 22 21 21 21 21 21 21 21 21 21 21 21 21 21 21 21 21 21 21 21 21 22 22 21 21 22 22 22 22 22 22 23 23 23 23 23 23 24 24 23 23 23 24 24 25 25 25 25 25 25 26 26 26 27 26 26 24 24 24 25 25 24 24 23 22 21 21 21 21 21 21 21 21 21
25 25 24 24 24 23 23 23 23 22 22 22 22 21 21 21 21 21 21 21 21 21 22 21 21 22 21 21 21 21 21 21 22 22 21 21 22 22 22 22 22 23 23 23 23 23 23 24 24 24 24 24 24 24 24 25 25 25 25 25 25 26 26 26 27 26 26 25 24 25 25 25 25 24 24 23 21 21 21 21 21 21 21 21 21
25 25 24 24 24 24 24 24 23 23 22 22 22 21 21 21 21 21 22 21 21 21 21 20 21 22 21 21 21 21 21 21 21 21 21 22 22 22 23 23 23 23 23 23 23 24 24 24 24 24 24 24 24 24 24 25 26 26 25 25 26 26 26 27 27 27 26 25 25 25 25 25 25 25 24 23 22 21 20 21 21 21 21 21 20
26 25 25 25 24 24 24 24 23 23 22 22 21 21 21 21 21 21 21 21 21 21 21 20 21 21 21 21 21 21 21 21 21 21 21 22 22 22 23 23 23 24 24 24 24 24 24 24 25 25 24 24 24 24 24 25 26 26 26 26 26 26 27 27 27 27 26 25 25 25 25 25 25 25 24 23 22 20 20 21 21 21 21 20 20
26 26 26 26 25 25 24 24 24 23 23 22 21 21 21 21 21 21 21 21 21 21 21 20 20 21 22 21 21 21 21 21 21 21 21 22 22 23 23 23 23 24 24 24 24 24 24 25 25 25 25 25 24 25 25 26 26 26 27 27 27 27 28 28 28 27 26 26 25 26 26 25 25 25 24 23 22 21 20 21 21 21 21 21 21
26 26 26 26 26 25 24 24 24 23 23 22 22 21 21 21 21 21 21 21 21 21 21 20 20 21 22 22 21 21 21 21 22 22 21 22 22 22 22 23 23 24 24 24 24 24 25 25 25 25 25 25 25 26 26 27 28 28 28 28 28 28 28 28 28 27 26 26 26 26 26 26 26 25 25 24 23 22 21 21 21 21 21 21 22
26 26 26 26 26 25 25 24 24 24 23 22 22 21 21 22 22 21 21 21 21 21 21 21 21 21 21 22 21 21 21 22 22 22 22 22 22 22 23 23 23 24 24 24 24 25 25 25 25 26 26 26 26 27 28 28 29 29 28 28 28 28 28 28 28 27 26 26 26 26 26 26 26 26 25 25 24 23 22 21 21 21 21 21 22
26 26 26 26 27 26 25 24 24 24 23 23 22 21 21 22 22 22 20 20 21 21 21 21 21 21 21 21 21 22 22 22 22 22 22 22 22 23 24 24 24 25 25 25 25 25 26 26 26 27 27 27 28 28 29 29 29 29 29 29 28 29 29 29 28 27 27 26 27 27 26 26 26 26 26 25 25 24 23 22 22 22 21 22 22
27 27 27 27 27 26 25 24 24 24 23 23 22 21 21 21 22 23 21 20 21 21 21 21 21 21 21 21 21 22 22 22 22 23 23 23 23 24 25 25 25 26 26 26 26 26 26 27 27 27 28 28 28 29 29 29 29 29 29 29 29 29 29 29 28 28 27 27 27 27 27 26 26 26 26 25 25 24 23 23 23 22 22 23 23
27 27 27 26 26 26 25 25 24 24 24 23 23 22 20 20 22 22 22 21 21 21 21 21 22 22 22 22 22 22 22 22 23 23 23 23 24 25 25 26 26 26 26 26 26 26 26 27 27 28 28 28 28 29 29 29 30 30 30 30 29 29 29 29 29 28 27 26 27 27 27 27 26 26 26 25 25 25 25 25 24 24 24 24 24
28 28 27 26 26 25 25 24 24 24 24 23 23 22 21 21 22 22 22 22 22 21 22 22 22 22 22 22 22 22 22 23 23 23 24 24 25 25 26 26 26 26 26 26 26 26 27 27 27 27 27 27 28 29 29 29 30 31 30 30 30 30 29 29 29 29 28 27 27 27 27 27 26 26 26 26 26 26 26 26 25 25 25 24 24
29 28 28 27 26 26 25 24 24 24 24 24 24 23 22 21 22 22 22 22 22 22 22 22 22 22 23 23 23 23 23 23 23 23 24 25 25 26 26 26 26 26 26 26 26 26 27 27 27 27 27 28 28 29 29 29 30 31 31 31 30 30 30 30 30 30 28 28 27 27 27 27 27 27 26 26 26 26 26 26 26 26 25 25 25
29 29 29 28 27 26 26 25 25 24 24 24 23 23 23 22 22 22 22 22 22 22 22 23 23 22 22 23 23 23 23 23 24 24 25 25 26 26 26 26 26 26 26 26 26 26 27 27 27 27 27 28 28 29 29 29 30 31 31 31 31 31 31 30 30 30 29 28 28 27 27 28 28 27 27 27 27 27 27 27 26 26 26 26 25
30 29 29 28 27 27 26 26 25 25 25 24 23 24 23 23 22 23 22 22 23 22 22 23 23 23 23 23 23 23 23 24 24 24 25 26 26 26 26 26 26 26 26 26 26 27 27 27 27 27 27 27 28 29 29 30 30 30 31 31 31 31 31 31 31 30 30 29 28 28 28 28 27 27 28 28 28 28 27 27 27 27 26 26 26
30 30 30 29 28 27 27 26 26 25 25 24 24 23 23 23 23 23 23 23 23 22 23 23 23 23 23 23 23 24 24 24 24 24 26 26 26 26 26 26 26 26 26 26 26 26 26 27 27 27 27 27 28 29 30 30 31 30 31 31 31 31 31 31 31 31 30 29 29 29 28 28 28 27 27 27 27 28 28 28 27 27 27 26 26
30 30 29 29 28 27 27 27 26 26 25 25 24 22 22 23 23 22 23 23 23 23 23 23 23 23 24 24 24 24 24 24 24 25 26 26 25 26 26 26 26 26 26 26 26 26 27 27 26 27 27 28 28 29 30 31 31 31 31 31 31 31 31 31 31 31 30 29 29 29 28 28 28 27 28 28 28 27 28 28 28 28 27 27 27
30 30 29 29 29 28 27 27 27 26 26 25 24 23 23 23 22 22 23 23 23 24 23 23 24 24 24 24 24 24 24 23 24 24 25 25 26 26 26 26 26 26 26 26 26 27 27 27 27 27 27 27 28 29 30 31 31 31 31 31 31 31 31 31 31 31 31 30 29 29 29 29 28 28 28 28 28 28 28 28 28 27 28 27 27
30 30 29 29 28 28 27 27 27 26 26 25 25 25 24 24 23 23 23 22 22 23 23 23 24 24 24 24 24 24 24 24 24 24 25 25 26 26 26 26 25 25 26 26 26 27 27 27 27 27 27 28 28 29 30 31 32 32 31 31 31 31 31 30 31 31 31 30 30 29 29 29 29 28 28 29 28 28 29 28 28 28 28 28 28
30 30 29 29 28 28 27 27 27 26 26 25 25 25 25 25 25 24 23 23 23 23 24 24 24 25 24 24 24 24 24 24 24 24 25 25 25 26 25 26 25 25 26 26 26 27 27 27 27 27 28 28 28 29 30 31 31 32 32 31 31 31 31 30 30 31 31 31 31 30 30 30 29 29 29 29 29 29 29 29 29 28 28 28 28
30 30 29 29 28 28 27 26 26 26 25 25 25 26 25 26 26 26 25 25 25 25 25 25 25 25 25 24 24 24 24 24 24 24 24 25 25 25 25 25 25 26 26 26 26 26 27 27 27 27 28 28 29 29 30 31 31 32 32 31 31 30 31 31 30 31 31 31 31 31 31 31 30 30 30 30 29 30 29 29 29 29 28 28 28
30 29 29 29 28 27 27 26 26 26 25 26 26 26 26 26 27 27 26 26 26 26 26 26 26 25 25 24 24 24 24 24 24 24 24 25 25 25 25 25 25 25 26 26 26 26 27 27 27 27 28 28 29 30 31 31 31 31 31 31 31 31 31 31 31 31 31 31 31 31 31 31 31 30 30 30 30 30 30 30 30 29 29 28 28
29 29 29 28 28 27 27 26 26 26 26 26 26 26 27 27 27 27 27 27 27 27 27 27 26 26 25 25 25 24 24 24 24 24 25 25 25 25 25 25 25 25 25 26 26 26 26 27 27 28 28 28 28 29 30 31 30 31 31 31 31 31 31 31 31 32 32 32 31 32 32 32 32 31 31 31 30 30 30 30 30 29 29 29 28
29 29 29 28 28 27 27 26 26 26 26 26 26 27 27 27 27 27 27 27 27 27 27 26 26 26 25 25 25 25 24 24 24 25 25 25 25 25 25 25 25 25 25 25 26 26 26 27 27 28 28 28 28 29 30 30 30 31 31 30 31 31 31 31 32 32 32 31 31 31 31 31 31 31 31 31 31 30 30 30 30 29 29 29 29
29 29 29 28 28 27 26 26 26 26 26 26 26 27 27 27 27 27 27 27 27 27 27 26 26 26 25 25 25 25 25 25 25 25 25 25 25 25 25 25 25 25 25 26 26 26 27 27 27 27 28 28 28 29 29 30 30 30 30 30 31 31 30 31 32 32 31 31 31 30 30 30 30 30 30 29 30 30 30 29 29 29 29 29 28
30 29 29 29 28 27 26 26 26 26 26 26 26 27 27 26 26 27 27 27 27 27 27 26 26 26 26 26 25 25 25 25 25 25 25 25 25 25 25 25 25 25 26 26 26 27 27 28 28 27 27 27 27 28 28 29 29 30 30 29 30 30 29 29 30 31 30 30 31 31 31 31 30 31 30 29 29 29 29 29 29 29 29 28 28
30 30 29 29 28 27 27 26 26 26 26 26 26 26 26 26 26 26 26 27 26 26 27 27 27 27 27 26 25 25 25 25 25 25 25 25 25 25 25 25 25 26 26 26 26 27 27 27 28 28 27 27 27 27 28 29 29 29 30 30 30 30 29 29 29 29 29 30 30 31 31 31 30 30 30 29 29 29 29 29 29 29 28 28 28
30 30 30 29 29 27 27 26 26 26 26 26 26 26 26 25 26 26 26 26 26 26 27 27 27 27 27 26 26 26 25 25 25 26 25 25 25 25 25 25 25 26 26 26 27 27 27 27 27 27 27 27 27 27 27 28 28 29 29 30 30 30 29 29 28 27 28 28 29 30 31 31 30 30 29 29 29 29 29 29 29 28 28 28 28
30 30 30 30 28 27 27 26 26 26 26 26 25 25 25 25 26 26 27 26 27 27 27 27 27 27 28 27 26 26 26 26 26 26 25 25 25 25 25 25 25 26 26 26 27 27 27 27 27 27 27 27 28 27 27 28 28 28 29 29 29 30 30 29 29 28 27 27 28 30 30 30 30 29 29 29 29 29 29 29 29 28 28 28 27
30 30 30 30 28 27 27 26 26 26 26 26 25 25 25 25 26 26 27 27 27 27 27 27 27 27 27 27 27 26 26 26 26 25 25 25 25 25 25 25 25 26 26 27 27 27 27 26 26 27 27 27 27 27 27 28 28 28 29 29 29 29 30 30 29 28 28 27 28 29 29 29 29 29 29 29 29 29 29 29 28 28 28 28 27
30 30 30 30 29 27 27 26 26 26 26 25 25 25 25 26 26 27 27 26 27 27 27 27 27 27 27 26 27 27 26 26 26 25 25 25 25 25 25 25 26 26 26 27 27 27 26 26 26 27 27 27 27 27 27 28 28 28 28 29 29 29 29 29 29 28 28 27 27 29 29 28 28 29 29 29 29 28 28 28 28 28 28 27 27
30 30 30 29 29 27 27 26 26 26 26 25 25 25 25 26 26 27 27 27 27 27 26 26 26 26 26 26 26 26 26 26 26 26 25 25 25 25 25 26 26 26 26 26 26 27 27 27 27 27 26 26 27 27 27 27 28 28 28 29 29 29 30 29 28 28 27 27 27 27 28 29 29 29 30 29 29 28 28 28 27 27 27 27 27
Height
801 800 801 800 801 801 802 802 803 803 803 803 802 803 803 804 804 805 806 806 807 808 809 810 811 812 813 814 815 815 817 817 817 817 819 821 822 825 826 826 825 824 824 824 824 824 824 824 824 824 825 825 826 826 825 825 826 826 827 827 828 829 829 830 830 830 831 831 831 832 833 834 835 835 835 836 836 837 838 838 838 839 839 840 840
799 800 801 801 802 802 803 803 804 804 804 804 803 804 804 805 805 806 807 808 808 809 810 811 812 813 814 815 815 816 818 819 819 818 820 822 823 826 827 827 827 826 826 826 825 825 826 825 825 826 826 827 827 827 826 826 826 827 828 828 828 829 830 830 830 831 832 832 832 833 834 835 835 836 836 836 837 838 839 839 839 840 840 841 841
798 800 801 801 802 802 804 804 805 804 805 805 805 805 805 806 806 808 808 809 809 810 811 812 813 814 815 816 816 817 819 821 820 820 822 824 825 827 827 828 828 828 827 827 827 827 827 826 827 827 828 828 828 828 827 828 828 828 829 829 829 830 831 831 831 832 833 833 833 834 835 836 836 836 837 837 838 839 839 839 840 840 841 841 841
799 800 801 801 802 803 804 805 805 805 806 806 806 806 806 808 808 809 809 810 810 811 812 812 814 814 815 816 817 818 820 823 822 822 824 827 827 828 828 829 829 829 829 828 829 828 828 828 828 829 829 829 829 829 829 829 829 830 830 830 830 831 832 832 833 833 834 834 835 836 836 837 837 837 838 838 839 839 840 840 840 841 841 842 842
799 800 801 802 802 804 805 805 806 806 807 807 807 807 808 809 809 810 810 810 811 811 812 813 814 816 817 818 819 820 822 824 824 825 826 828 829 829 830 830 829 829 830 830 830 829 829 830 830 830 830 830 830 831 831 831 831 831 831 832 832 833 833 833 834 834 835 836 837 837 838 838 838 838 839 839 840 840 840 841 841 841 842 842 842
799 799 801 802 804 804 805 806 807 807 808 808 808 808 810 810 810 811 811 812 812 813 813 814 816 817 819 819 821 822 824 825 826 827 828 829 830 831 830 830 830 830 831 831 831 831 831 831 832 832 832 831 832 832 832 832 833 833 833 833 833 834 834 835 835 835 836 837 838 838 839 839 838 839 839 840 840 841 841 841 842 842 842 842 843
798 800 802 802 804 805 806 807 807 808 809 809 810 810 811 811 811 812 813 814 814 815 815 816 817 818 819 821 822 824 825 826 828 829 830 831 831 831 831 831 833 832 832 832 832 832 832 832 833 833 833 833 833 833 834 834 834 834 834 834 835 835 835 836 836 836 837 838 838 839 840 840 839 839 840 840 841 841 842 842 842 843 843 843 843
798 800 802 803 804 805 807 807 808 809 810 811 811 811 812 812 812 813 814 815 816 816 817 818 819 820 821 823 824 825 827 828 829 831 832 831 832 832 831 833 834 834 833 833 833 833 833 834 834 834 834 834 834 835 835 835 835 835 835 835 836 836 836 837 837 837 838 839 839 840 841 840 840 840 841 841 841 842 842 843 843 843 843 844 844
800 801 802 804 804 805 807 807 809 809 810 811 812 812 813 813 814 815 816 817 817 818 818 819 821 822 824 825 825 827 828 828 828 831 833 833 833 832 831 833 834 833 833 833 833 834 834 834 835 835 834 835 835 836 836 836 836 835 836 837 837 837 837 837 838 838 839 839 840 841 841 841 841 841 841 841 842 842 843 843 843 844 844 844 845
800 801 803 804 805 806 806 808 808 810 811 812 812 813 813 814 815 816 817 818 818 819 820 821 823 824 825 826 826 827 827 827 827 831 834 834 834 833 834 835 834 834 834 834 834 835 835 835 835 835 835 836 836 836 837 837 837 837 837 838 838 838 838 838 838 839 840 840 841 842 842 842 841 841 841 842 842 843 843 844 844 844 844 845 845
800 801 803 804 805 805 806 808 809 810 811 812 813 813 814 815 816 817 819 819 819 820 821 823 824 825 826 826 826 826 827 827 829 832 834 835 835 836 836 835 834 835 834 835 835 835 836 836 836 836 836 836 837 837 837 837 837 838 838 838 838 839 839 839 839 840 841 842 842 842 842 842 841 841 842 842 842 843 844 844 844 844 845 845 845
800 801 803 804 805 806 807 808 809 811 811 813 814 814 815 816 817 818 819 820 821 821 822 824 825 826 827 827 827 826 828 829 831 832 834 836 837 836 836 835 835 835 835 836 836 836 836 836 836 836 836 837 838 838 838 838 838 839 839 839 839 839 839 840 840 841 842 842 843 843 843 842 842 842 842 842 843 843 844 844 845 845 845 845 846
800 801 803 804 805 807 807 809 810 811 812 813 814 815 816 817 818 819 820 821 822 823 823 825 826 827 828 828 828 828 829 830 832 832 835 838 837 836 835 836 836 836 836 836 837 837 837 837 837 837 837 838 838 838 838 838 838 839 839 840 839 840 840 840 841 842 843 843 843 843 843 843 842 842 842 842 843 843 844 844 845 845 846 846 846
800 801 803 804 805 807 807 810 811 811 813 814 815 816 817 818 819 820 821 822 824 825 825 826 826 828 829 829 829 829 830 830 832 833 836 837 836 836 836 837 836 837 837 837 838 838 838 838 838 838 838 839 839 839 839 839 839 839 840 840 840 840 840 841 843 843 844 844 844 843 843 842 842 842 842 842 843 844 844 845 845 846 846 846 847
799 801 803 804 805 807 808 810 811 812 813 814 816 817 818 819 820 821 822 823 825 826 827 827 827 829 829 830 830 831 832 831 833 834 836 837 837 837 837 838 837 838 838 838 838 839 839 839 839 839 839 840 840 840 839 840 839 840 840 840 841 841 841 842 844 844 844 844 844 843 843 843 842 842 843 843 844 844 845 845 846 846 846 846 846
800 801 803 804 806 807 809 810 811 813 813 815 816 817 819 819 821 821 823 824 825 827 828 828 828 829 830 831 832 832 834 833 833 835 836 837 838 838 838 838 838 838 838 838 839 839 840 840 840 840 840 841 841 841 841 841 840 841 841 841 841 841 842 842 844 845 845 845 844 843 843 843 843 843 843 843 844 845 845 846 846 846 846 846 846
800 802 803 805 807 808 809 811 811 813 814 816 817 818 819 820 822 822 824 825 826 828 828 829 829 830 831 832 833 833 835 833 833 835 837 838 838 839 838 839 839 839 839 839 840 840 841 841 841 841 841 842 842 842 842 842 841 841 841 842 842 842 843 843 844 845 845 845 844 843 843 843 843 843 843 844 845 845 846 846 847 847 847 846 846
800 803 804 806 807 808 810 811 812 814 815 816 817 819 820 821 822 823 824 825 827 828 828 828 829 830 831 832 833 834 835 834 834 835 837 839 839 839 839 839 839 839 839 839 840 841 841 841 841 842 842 842 842 843 843 843 842 842 842 842 842 843 843 843 844 845 845 844 844 844 844 844 843 843 844 844 845 846 846 847 847 847 847 846 846
802 803 805 807 807 809 810 811 813 814 816 817 818 819 821 822 823 824 825 826 827 827 828 829 830 831 831 833 834 834 835 835 835 835 838 840 840 840 840 840 840 839 839 840 840 841 841 842 842 842 843 843 843 843 843 843 843 843 843 843 843 843 843 844 845 845 845 844 844 844 844 844 844 844 844 845 846 846 847 847 847 847 847 846 846
802 803 805 807 807 810 810 812 814 815 817 817 819 820 822 823 823 824 825 826 827 827 828 829 831 831 832 833 833 834 835 836 836 837 840 841 841 841 840 840 840 840 840 840 841 841 842 842 842 843 843 843 843 843 843 844 844 843 844 843 843 843 843 843 845 846 845 844 844 845 844 844 844 844 844 845 846 847 847 847 847 847 846 846 847
802 803 805 807 807 809 810 812 813 815 817 817 820 820 821 823 823 823 824 826 826 827 828 830 832 831 832 833 833 834 836 837 837 838 841 842 842 841 841 840 840 840 840 840 841 842 842 842 842 843 843 843 843 844 843 843 844 843 844 843 844 843 843 844 845 846 845 844 845 845 845 844 844 844 844 845 846 847 847 847 847 846 846 846 847
801 804 805 807 807 809 810 812 813 815 816 818 820 820 821 822 822 822 823 826 826 827 828 830 832 831 832 833 833 834 837 839 838 840 842 842 842 841 841 840 840 840 841 841 842 842 842 842 843 843 843 844 843 843 843 843 843 843 843 843 843 843 843 844 845 845 845 844 845 845 845 844 844 844 844 845 846 847 847 847 847 846 846 846 847
801 804 805 806 807 809 810 811 813 814 816 819 820 820 821 821 821 822 823 825 825 827 829 831 832 831 832 833 834 835 838 839 840 842 842 842 842 841 841 841 841 841 841 842 842 842 842 843 843 843 843 844 843 843 843 843 843 843 843 843 843 843 844 845 845 845 844 844 845 845 845 844 844 844 844 845 845 846 847 847 847 846 846 846 847
801 803 804 805 806 808 809 811 812 814 816 818 820 821 821 822 822 822 823 825 826 827 829 831 832 832 832 834 835 836 839 841 842 843 842 842 841 841 841 841 841 841 842 842 842 843 842 843 842 843 843 843 843 842 842 843 843 843 843 842 842 843 844 844 845 845 844 844 845 845 845 845 844 844 844 844 845 846 847 847 847 847 847 847 847
800 802 803 804 805 807 809 810 812 814 816 818 820 821 821 822 823 824 825 826 827 827 830 832 834 833 832 835 836 837 840 842 843 842 842 841 841 841 841 841 841 841 842 842 843 843 842 843 842 842 843 842 842 842 842 842 842 842 842 842 842 843 844 844 845 845 844 845 845 845 845 845 845 844 844 844 845 846 847 848 847 847 847 848 848
800 801 802 803 805 806 808 809 811 813 815 817 819 821 822 822 823 824 825 826 827 828 830 833 835 835 834 835 837 839 841 842 842 842 841 842 842 841 841 841 842 842 842 842 843 843 842 842 842 842 842 842 841 841 842 841 841 842 842 842 842 843 844 844 845 844 844 845 845 845 845 845 845 845 844 844 845 846 847 848 848 848 848 848 848
799 801 801 803 804 805 807 809 810 812 814 817 818 821 821 821 821 823 825 826 827 828 831 833 835 837 836 837 839 840 841 842 842 842 842 842 842 842 842 842 842 842 842 842 843 843 842 842 842 842 842 841 841 841 842 841 841 841 842 842 842 843 843 844 844 844 844 845 845 845 846 846 846 845 845 845 845 845 846 848 848 849 849 849 848
797 800 801 802 803 805 807 808 810 811 814 816 819 821 821 821 818 819 824 826 827 829 831 832 835 837 837 838 840 841 842 843 843 843 843 842 843 842 842 842 843 843 842 843 843 842 842 841 842 841 841 841 840 841 841 841 841 841 842 842 842 843 843 844 844 844 844 845 845 846 846 846 846 846 846 845 845 846 846 848 849 849 849 849 848
797 799 801 802 803 805 806 808 809 811 813 815 818 820 822 822 818 817 822 825 826 828 830 832 835 837 839 839 840 842 842 843 843 843 843 842 842 842 842 843 843 843 842 842 842 842 842 842 842 842 842 841 840 841 841 840 841 840 841 841 842 842 842 844 844 844 844 845 846 846 847 847 847 847 846 846 846 846 846 847 848 849 849 849 848
796 798 800 802 803 805 807 808 809 811 813 815 818 820 823 823 820 820 822 824 826 828 830 831 834 836 838 839 839 841 842 842 843 843 843 842 842 842 843 843 843 843 843 843 843 843 842 842 843 842 843 842 841 841 841 840 840 840 840 841 841 842 842 843 844 844 844 845 846 846 847 847 847 847 847 846 846 846 846 847 848 848 849 849 849
795 797 799 801 803 804 807 807 809 811 812 815 817 819 822 822 821 822 822 824 827 828 830 831 833 835 837 839 839 841 841 842 843 843 843 843 843 843 843 844 843 843 843 843 843 842 842 843 843 843 844 843 842 841 841 840 840 840 840 840 841 841 842 842 843 844 844 844 845 846 846 846 847 847 847 846 846 846 846 846 847 847 848 848 848
793 795 798 800 802 803 806 807 809 810 812 815 816 819 821 821 821 822 823 825 827 829 830 832 833 835 836 838 840 841 842 842 843 843 843 843 843 843 844 843 843 843 843 843 843 843 843 844 844 844 844 844 842 842 842 840 840 841 840 840 840 840 841 841 842 843 843 843 844 844 844 845 846 846 846 846 846 846 846 846 846 846 847 848 848
791 794 796 798 801 803 805 807 809 810 812 814 816 818 820 821 822 822 824 825 827 829 830 832 833 834 836 837 840 841 841 842 842 842 843 844 844 844 844 843 843 843 843 843 843 843 843 844 844 844 845 844 843 842 842 841 841 840 840 840 840 840 840 840 841 842 843 843 843 843 843 844 845 845 845 845 846 846 846 846 846 846 846 847 847
791 793 795 798 801 802 804 806 808 810 812 814 816 818 819 821 822 823 824 825 827 829 830 832 833 834 835 837 839 840 840 841 841 842 843 844 844 844 844 843 843 843 843 843 843 843 843 844 844 844 844 844 843 842 841 841 841 840 839 840 840 840 839 839 840 841 841 842 843 842 842 844 845 846 846 846 846 847 847 847 847 847 847 847 846
790 792 794 797 800 802 804 806 808 810 812 815 816 819 820 820 822 823 823 824 826 829 830 832 833 834 835 837 839 839 839 841 841 843 844 844 844 844 844 843 843 843 843 843 843 843 844 844 844 844 844 843 842 842 841 840 841 840 839 840 840 840 839 839 840 840 841 841 843 843 842 843 845 846 846 846 846 847 847 848 848 847 847 847 846
789 792 794 796 799 801 804 805 807 810 812 815 817 819 820 820 822 823 822 823 826 828 831 833 834 835 836 837 838 838 840 842 842 843 844 843 844 844 843 843 843 843 843 843 843 843 844 844 844 844 843 843 842 842 842 841 840 840 840 840 840 839 839 840 840 840 840 840 842 843 843 844 845 846 846 846 846 847 848 848 848 848 848 848 847
789 791 794 796 798 801 803 805 807 809 811 814 816 818 820 821 823 825 825 826 827 827 829 832 833 835 836 836 837 839 841 843 843 843 843 843 843 843 843 843 843 843 843 843 843 843 844 844 844 843 843 843 842 841 841 840 840 840 840 840 840 840 840 840 840 840 840 841 842 843 844 845 846 846 846 846 846 847 848 848 848 848 848 848 848
789 791 794 796 798 801 803 805 806 809 811 813 815 817 819 820 822 825 827 828 829 829 830 832 833 835 837 837 838 840 841 842 842 842 842 842 842 842 842 843 843 843 843 843 843 843 844 844 844 843 843 843 842 840 839 839 839 839 839 840 840 840 840 840 840 840 841 842 842 843 843 844 845 845 846 845 846 846 847 847 848 848 848 848 848
789 791 794 796 798 801 802 805 807 808 810 812 814 816 817 819 820 823 825 828 829 830 830 832 834 835 836 837 838 839 840 840 841 842 841 842 842 842 842 842 842 843 843 843 843 843 844 844 844 843 843 842 842 840 839 839 838 838 838 839 840 841 841 841 841 841 842 842 843 843 843 843 843 844 845 845 845 846 846 846 847 847 847 847 848
789 791 794 796 798 801 803 805 807 808 810 812 813 815 816 817 819 820 823 826 827 828 830 831 833 834 835 836 837 838 838 839 840 840 841 841 841 841 842 842 842 843 843 842 843 843 843 844 844 844 843 842 842 840 839 839 838 838 838 839 840 840 841 841 841 841 841 841 842 843 842 842 842 843 844 844 845 845 845 845 845 846 846 846 847
790 792 794 796 798 800 803 805 806 808 809 811 812 813 815 816 817 819 821 823 825 826 828 830 831 833 834 835 836 837 837 838 839 839 840 840 840 841 841 842 842 843 842 842 842 843 843 843 843 843 843 842 841 841 840 839 838 838 838 839 839 839 840 841 841 840 840 841 841 842 842 842 841 841 842 843 843 844 844 844 844 845 845 845 845
790 792 794 795 798 800 802 804 806 807 809 810 811 812 814 815 816 818 819 821 823 825 826 828 830 832 833 834 835 835 836 837 838 839 839 840 840 840 841 842 842 842 842 842 842 843 843 843 843 843 842 842 841 840 840 839 839 838 838 838 838 839 839 839 840 839 839 841 841 841 842 843 842 840 841 842 842 844 844 843 843 844 844 845 844
790 792 794 795 797 800 802 804 805 807 808 809 810 812 813 814 815 817 818 820 822 824 825 827 829 830 832 833 834 835 836 837 837 838 839 839 840 840 840 842 842 842 842 842 842 843 843 842 843 842 841 841 840 840 840 839 840 839 838 840 839 839 841 839 838 839 839 841 842 842 842 844 844 841 840 842 842 843 843 843 843 843 843 843 844
790 791 793 795 797 799 801 803 805 806 807 809 810 811 813 814 815 816 817 819 821 823 825 827 828 830 831 832 833 834 835 836 836 837 838 839 839 839 840 841 842 842 842 842 842 842 842 842 842 842 841 841 840 839 840 839 840 839 840 841 838 840 846 842 838 838 840 842 842 842 843 844 843 842 841 842 842 842 843 843 842 843 843 843 843
789 791 792 794 796 798 801 802 804 805 807 808 810 811 812 813 814 816 817 819 821 822 824 826 827 829 830 831 832 833 834 835 836 837 838 838 839 839 840 841 841 842 842 842 842 842 842 842 842 842 842 842 841 840 841 840 840 840 840 841 842 845 848 842 840 841 841 842 842 841 843 843 842 841 841 842 842 843 842 842 842 841 842 842 842
787 789 791 793 795 798 800 802 803 805 806 808 809 811 812 813 814 815 817 818 820 822 823 825 826 827 829 830 831 832 834 835 835 837 837 837 839 839 839 840 840 841 841 841 841 841 841 841 841 841 842 842 842 842 841 841 841 840 839 841 842 845 844 841 844 846 842 841 841 841 841 841 841 841 841 841 842 842 842 841 841 841 842 843 842
786 788 790 792 795 797 800 802 803 805 806 807 809 810 811 813 814 815 816 818 819 821 822 823 825 826 827 829 830 832 833 834 835 836 836 837 838 839 839 840 840 840 840 840 841 841 841 841 841 841 841 842 842 842 842 841 841 841 841 841 841 841 841 842 845 847 847 845 842 841 841 841 841 842 841 841 841 841 841 841 841 842 843 843 843
786 787 789 791 794 797 799 801 803 804 805 807 809 810 811 813 814 815 816 818 819 820 822 822 824 825 826 828 829 831 832 833 834 835 836 836 837 838 838 839 840 840 840 840 840 840 840 841 841 841 842 842 842 842 842 842 842 842 842 842 842 842 842 843 843 845 848 849 845 841 840 841 841 841 841 841 840 840 841 840 840 841 841 843 843
785 787 788 791 794 797 799 801 802 804 805 806 808 809 811 812 813 815 816 817 818 820 821 822 823 825 826 827 829 830 831 833 834 834 835 836 836 837 838 838 839 839 840 840 840 840 840 841 841 841 842 842 842 843 843 843 843 843 843 843 843 843 842 843 843 843 845 848 848 843 840 841 841 840 840 840 840 840 840 840 840 840 840 841 842
784 787 789 790 794 796 798 800 802 803 805 806 808 809 811 812 813 814 815 817 818 819 821 822 823 824 825 827 828 829 830 832 833 834 835 835 836 837 837 838 838 838 839 839 839 840 840 840 841 842 842 842 843 843 843 843 843 843 844 844 844 843 843 843 843 844 844 846 847 844 841 841 841 840 840 840 840 840 840 840 840 840 840 841 841
784 786 789 790 793 796 798 800 801 803 804 805 807 808 810 811 812 814 814 816 817 818 820 821 822 824 824 826 827 828 829 831 832 833 834 835 835 836 836 837 838 838 838 839 839 839 840 840 841 841 842 842 843 843 843 843 843 843 843 843 843 843 843 842 842 844 844 845 846 845 842 841 841 840 839 839 840 839 839 839 840 840 840 840 840
Wind_Speed
9 10 11 11 12 11 11 11 11 11 13 12 12 12 12 14 13 12 12 11 11 12 12 13 15 16 16 17 19 20 18 13 12 12 13 13 13 13 13 13 13 14 14 14 13 14 14 15 16 16 15 15 15 14 14 16 17 18 19 18 18 18 18 18 19 20 20 21 21 21 19 18 17 17 17 16 16 15 14 14 14 14 14 14 13
12 12 11 12 13 11 11 11 11 12 13 13 13 13 12 12 11 11 10 10 11 12 12 13 15 16 16 16 17 16 16 13 13 14 15 15 13 13 13 13 14 15 15 14 14 14 15 15 16 15 15 15 15 14 15 17 17 18 19 19 19 19 19 19 20 19 20 20 20 19 18 17 16 16 16 16 16 16 14 14 14 13 14 14 13
15 14 12 12 13 12 11 11 12 12 12 13 12 12 11 10 10 10 9 10 11 12 12 13 14 15 15 15 15 14 15 15 15 15 15 15 13 14 15 14 15 15 15 15 14 14 15 15 15 14 14 15 14 14 16 17 17 18 19 20 19 19 19 20 20 18 19 19 19 18 17 17 17 17 16 15 15 14 14 15 14 13 14 14 13
16 14 12 13 13 13 11 11 11 12 12 12 12 12 11 10 10 9 9 10 11 12 12 13 13 13 14 14 14 14 15 16 16 16 15 14 13 15 16 14 15 15 15 15 15 15 15 15 15 14 14 14 14 14 16 16 17 18 18 18 18 17 18 18 18 17 18 17 16 16 16 17 17 17 16 15 14 14 14 15 14 14 14 14 14
16 14 13 12 12 14 12 11 11 11 11 11 12 11 10 10 10 9 9 9 10 11 12 13 13 13 13 13 14 14 15 16 16 16 15 14 14 15 15 15 15 15 14 15 16 16 16 15 15 14 14 14 14 14 15 16 16 17 17 16 16 14 15 16 13 14 15 14 14 14 15 16 16 16 15 15 15 15 15 15 14 14 13 13 13
16 14 14 12 11 14 13 11 11 11 11 10 11 11 10 10 10 9 9 8 9 11 13 13 13 14 14 13 12 12 14 15 15 16 15 14 15 15 15 14 15 15 14 15 16 17 16 15 15 14 15 15 15 15 15 16 15 15 15 15 15 14 14 14 11 11 13 13 14 13 13 14 15 15 14 14 14 14 14 14 14 13 13 13 12
17 16 15 13 11 14 14 13 12 11 11 10 11 11 10 10 10 9 9 9 10 11 13 14 14 14 13 12 11 11 12 14 14 13 14 14 15 16 15 14 13 15 14 15 16 16 16 15 15 15 15 16 16 16 15 15 14 14 15 14 14 14 14 13 11 11 12 14 14 13 12 12 14 14 13 13 13 12 12 13 13 13 12 12 12
18 17 16 14 12 14 15 13 12 12 11 11 11 11 10 9 9 9 9 9 10 10 13 14 13 12 13 13 12 12 12 13 13 11 12 15 15 15 16 14 13 15 15 15 15 15 15 14 15 15 16 16 16 15 14 14 14 14 14 13 12 12 13 12 11 11 13 14 14 13 12 12 13 12 12 12 12 11 11 11 11 12 13 12 11
18 17 17 15 14 15 14 13 12 12 11 11 11 10 9 9 9 9 9 10 11 10 12 13 12 12 13 14 13 13 14 14 14 11 11 14 15 15 15 14 13 15 14 14 14 14 14 13 14 15 16 15 14 13 12 12 13 13 13 12 11 12 13 12 11 12 14 14 13 13 12 12 11 10 11 11 11 12 11 10 10 11 12 11 10
18 17 18 16 15 16 14 13 12 11 12 12 11 9 8 8 8 9 10 10 11 10 11 12 12 12 13 14 14 14 15 14 15 13 11 12 14 14 13 13 14 14 14 14 13 13 13 12 13 15 15 14 13 11 11 11 11 12 13 12 11 12 12 13 12 11 12 13 12 12 12 11 11 10 11 11 11 11 10 9 9 10 10 10 9
18 18 18 17 16 16 15 14 12 12 11 12 11 9 8 8 8 9 10 9 10 11 10 12 13 13 13 14 13 13 14 13 14 13 12 12 12 12 12 13 14 14 14 14 13 13 12 12 13 15 15 13 12 10 10 10 11 12 13 13 11 12 11 11 12 10 11 12 13 12 12 11 11 11 11 11 11 10 9 9 9 9 9 9 9
19 19 19 18 16 15 15 14 13 12 11 12 11 9 8 8 9 10 10 9 10 11 10 11 12 13 13 14 13 12 13 14 14 13 13 11 11 12 12 13 14 14 14 13 13 13 12 12 12 14 14 13 12 10 10 9 10 12 13 13 12 12 11 10 10 12 12 12 13 12 11 10 10 10 9 9 9 9 9 8 8 9 9 9 9
19 19 19 18 16 15 14 14 12 11 12 12 10 10 8 8 9 9 9 9 11 11 11 11 11 11 12 13 13 12 13 14 13 13 12 11 11 13 13 13 14 14 13 13 12 12 12 12 12 13 13 12 12 11 9 9 10 12 14 14 14 14 14 12 10 12 13 12 13 11 9 8 8 8 8 7 7 7 7 7 8 8 8 8 7
19 19 18 17 16 15 14 14 12 12 13 12 11 10 9 8 8 9 8 9 12 12 11 11 11 10 10 12 14 13 12 13 13 12 11 11 12 13 12 12 13 13 13 13 13 13 13 13 13 13 13 12 12 11 10 9 10 13 14 14 16 16 14 11 10 11 10 11 11 9 8 7 7 7 7 7 6 6 7 7 7 7 7 7 7
20 20 18 17 16 15 15 14 13 12 13 12 11 10 10 8 8 9 9 10 12 12 12 11 11 11 10 11 14 14 11 12 12 11 11 10 11 12 12 12 12 13 12 13 13 13 13 13 13 12 12 12 12 12 10 9 10 13 13 13 13 12 11 9 9 10 10 11 10 8 7 7 7 7 7 7 6 6 7 7 7 7 7 7 6
21 20 18 17 16 15 14 13 13 12 12 12 11 10 9 8 8 9 9 10 11 13 13 11 10 11 12 12 14 14 12 12 12 10 10 10 10 11 11 11 12 13 12 13 13 13 13 13 13 13 12 12 12 12 11 10 11 12 12 11 11 10 11 9 8 10 9 8 7 6 5 7 8 7 6 6 6 6 6 6 6 7 7 6 6
21 19 19 18 16 15 13 12 12 12 12 11 11 10 9 8 9 9 9 10 11 12 13 11 10 10 12 13 13 14 13 13 13 10 10 10 10 10 11 12 12 12 12 13 14 14 13 13 13 12 12 12 12 11 10 11 11 12 11 12 12 10 9 7 6 8 7 7 7 6 5 7 7 7 6 6 5 5 5 6 6 6 6 5 4
22 19 18 18 16 15 14 12 12 12 11 11 10 10 9 8 9 10 10 10 10 12 13 12 11 11 11 12 12 13 13 13 13 12 10 10 11 11 11 11 11 12 12 12 13 13 13 13 12 12 11 11 11 10 9 10 12 13 13 13 12 10 10 9 7 5 7 9 8 5 3 5 7 7 6 5 4 4 5 5 5 5 4 3 2
20 18 17 17 15 15 15 13 12 12 11 11 9 9 9 9 9 10 10 10 11 12 14 13 11 11 11 12 12 11 12 12 11 11 10 11 11 10 11 11 11 11 12 12 12 12 12 12 12 11 10 11 10 9 8 9 12 14 14 13 11 10 9 8 8 7 8 9 6 3 1 3 6 7 6 6 4 4 4 4 4 4 3 2 2
17 16 15 14 15 14 13 13 13 13 12 11 10 8 10 9 9 10 10 10 11 12 13 13 12 12 13 12 11 10 11 11 10 10 10 10 11 10 11 11 10 11 11 11 11 11 11 11 11 11 10 10 9 8 8 9 12 13 12 11 8 6 5 5 8 7 7 7 4 2 1 3 5 6 7 6 5 5 4 4 3 2 1 0 1
16 15 15 15 15 13 12 12 12 13 12 12 11 9 10 10 10 11 12 11 11 13 13 14 13 12 14 14 11 10 11 11 11 11 10 10 11 11 11 10 9 9 9 9 10 10 10 11 11 10 10 9 9 8 9 9 10 11 10 8 7 7 5 4 6 5 5 5 4 1 1 4 5 6 7 6 6 5 4 4 3 2 2 1 2
16 15 16 14 14 13 11 12 11 12 11 11 11 10 11 12 11 12 12 12 11 13 14 15 15 14 14 15 13 11 11 12 12 12 11 10 11 11 10 8 7 7 7 8 8 9 9 10 10 10 9 9 9 8 8 8 9 8 8 7 6 6 3 3 5 6 8 7 5 2 3 5 5 7 7 7 6 4 3 4 4 3 3 2 1
15 13 15 13 12 13 11 12 12 12 12 12 12 12 12 13 12 12 12 12 12 14 15 14 16 15 15 15 15 13 12 13 13 12 11 10 10 10 8 6 6 7 8 8 8 8 9 10 10 10 9 9 8 8 7 5 6 5 6 6 5 4 4 5 5 6 9 7 4 3 4 5 6 7 7 7 6 5 4 3 4 4 3 1 1
14 12 14 14 13 12 11 12 12 12 13 13 12 12 13 12 12 13 12 14 14 15 15 14 16 16 15 15 15 13 14 14 13 13 11 11 10 9 8 7 8 8 8 8 8 8 9 10 10 9 9 9 8 8 9 8 5 4 4 6 6 5 6 5 5 7 6 5 3 3 4 5 6 7 8 8 6 5 4 4 4 3 3 2 2
15 12 11 13 14 13 12 12 11 11 12 13 13 12 12 10 12 14 13 15 15 16 16 16 17 16 15 15 15 13 14 14 14 13 11 11 10 9 8 8 9 10 10 8 7 9 10 10 9 8 8 9 8 8 10 12 10 6 5 5 5 6 6 4 5 7 6 4 3 3 4 6 6 6 8 7 6 6 5 4 4 2 2 3 3
16 12 11 11 12 12 11 11 11 10 11 13 13 14 13 10 11 13 13 15 16 15 16 18 18 16 15 15 15 14 15 14 14 14 12 11 10 9 8 7 7 8 10 7 6 7 9 8 6 5 6 8 9 8 9 11 9 8 6 5 5 5 5 5 7 6 6 4 3 3 4 5 6 6 7 6 5 6 6 4 3 2 3 4 3
16 13 12 11 12 13 12 12 12 10 11 12 12 15 14 11 10 12 14 15 15 15 16 19 20 18 16 15 13 14 16 14 13 13 11 11 9 9 10 9 7 6 8 8 8 7 8 7 7 7 6 8 10 7 6 6 6 8 8 6 5 4 5 6 7 6 6 3 2 2 4 5 5 5 5 5 5 5 5 4 3 3 4 4 4
15 14 13 12 11 13 13 13 12 11 12 12 13 15 14 13 11 12 15 15 14 15 16 19 21 19 16 15 13 13 14 13 11 11 11 11 11 10 10 11 10 7 7 8 8 6 6 7 6 7 6 7 7 8 7 5 6 7 7 6 5 4 6 6 7 8 6 2 2 1 2 4 4 4 4 5 5 4 4 4 3 3 3 4 4
15 13 13 13 11 12 13 13 12 11 12 12 14 15 16 16 13 12 14 16 16 15 17 20 22 20 17 16 14 12 12 11 10 10 10 11 11 11 10 11 10 8 8 8 7 5 5 6 4 3 3 2 2 6 6 5 7 7 8 8 6 4 6 6 6 8 6 2 3 1 1 2 3 3 3 3 4 4 4 4 4 4 4 4 4
15 14 13 14 13 12 12 12 11 12 12 12 14 15 17 17 14 14 16 17 18 17 19 21 21 20 20 19 16 13 11 10 10 10 10 10 10 11 11 10 9 9 9 7 7 6 5 5 3 2 2 1 2 4 5 5 6 6 8 10 9 6 6 6 6 8 7 3 3 4 1 0 2 2 2 3 3 4 4 3 4 4 4 4 4
15 15 15 16 16 15 14 14 12 13 13 12 14 16 18 16 13 16 16 16 18 19 21 21 20 20 20 20 18 16 15 13 12 11 10 10 9 10 10 10 9 8 7 7 6 6 5 4 2 2 2 2 4 4 4 7 6 7 7 9 9 8 8 9 9 9 9 6 3 5 3 1 1 2 2 3 3 4 4 4 4 4 4 4 4
14 14 16 17 17 17 16 15 13 13 13 12 13 16 17 16 14 15 15 14 17 19 21 21 21 19 18 19 17 16 15 15 14 12 10 10 9 10 10 9 8 7 7 6 5 5 4 3 3 3 2 3 5 3 3 3 2 6 7 8 9 9 9 10 11 11 10 6 3 4 4 2 2 3 3 3 3 4 5 5 5 4 4 3 3
13 13 14 15 16 15 15 15 13 13 13 12 14 15 16 17 17 15 15 15 16 18 19 21 20 17 16 16 14 14 14 14 13 13 11 10 10 9 9 8 7 7 6 5 5 4 2 2 3 3 3 2 4 4 4 3 1 4 6 6 6 7 8 10 10 12 11 7 5 4 3 3 4 3 3 3 3 4 5 6 5 4 4 3 3
13 13 13 16 16 14 13 13 14 13 14 14 14 14 16 18 18 18 18 16 16 17 19 21 19 16 15 14 12 13 15 13 12 12 11 10 10 8 8 7 6 5 5 4 5 5 2 3 3 4 3 2 3 5 6 6 6 5 6 7 6 6 8 10 10 9 12 12 9 6 3 4 4 3 3 3 1 3 4 5 5 5 4 3 3
12 12 13 15 15 14 13 13 14 14 15 16 15 15 15 17 19 18 17 16 17 20 21 20 18 16 15 13 12 13 14 12 11 11 10 10 9 7 7 6 6 5 5 4 5 4 3 4 2 3 1 1 5 5 4 4 7 5 4 7 7 6 5 8 9 9 12 12 10 8 6 4 3 3 3 2 1 2 3 5 5 5 5 4 3
13 13 14 14 14 14 13 13 14 14 14 15 16 18 17 17 20 20 17 15 17 21 21 19 18 16 15 14 13 14 14 12 10 9 9 10 9 7 5 6 6 4 4 4 3 3 2 3 1 1 2 1 6 6 3 4 8 6 4 6 6 6 7 6 5 9 12 12 11 11 9 6 4 4 4 3 2 2 2 3 4 4 4 4 4
13 13 14 13 14 14 13 14 14 14 14 15 15 17 18 20 22 23 19 16 16 19 20 19 19 18 16 14 14 14 14 14 10 7 8 10 9 8 5 6 6 3 4 4 3 3 3 3 1 1 1 2 5 4 4 6 9 7 6 7 6 6 7 3 3 7 11 12 11 12 11 9 7 7 6 4 4 4 1 3 3 4 4 5 6
14 14 14 13 14 13 13 14 14 14 14 14 14 15 17 18 20 23 24 22 21 21 21 21 21 20 18 17 15 15 15 14 9 6 7 9 9 7 6 6 5 3 5 5 3 3 4 3 1 1 2 3 4 4 5 5 6 7 8 8 5 3 3 1 3 6 7 8 10 12 13 10 9 8 7 6 7 6 3 4 5 4 3 4 7
14 14 14 14 14 13 14 14 13 14 14 14 14 13 14 14 16 20 23 23 24 23 22 20 20 20 19 18 16 14 15 13 10 8 7 7 7 6 5 5 4 4 4 5 4 3 3 3 1 1 4 4 3 3 3 4 4 3 7 9 7 4 5 4 4 5 8 7 8 12 14 12 11 10 7 6 9 10 7 6 7 6 4 5 6
14 15 15 14 14 14 14 14 13 14 14 13 14 13 13 12 13 14 16 19 21 21 20 19 18 18 17 17 15 14 14 13 11 8 5 5 6 5 5 5 4 3 4 4 5 3 3 2 2 3 4 4 4 6 7 6 7 1 3 4 8 5 5 5 4 8 9 8 9 8 10 13 14 12 9 7 9 10 10 7 7 7 5 5 7
15 16 15 15 15 15 15 14 13 14 14 13 13 13 12 12 13 12 13 15 16 17 18 18 17 16 17 17 15 14 13 12 11 7 4 5 6 5 5 4 4 4 3 3 3 2 3 3 2 3 4 5 5 6 6 5 5 2 2 3 7 8 5 4 5 9 7 6 9 6 6 10 14 15 10 9 11 8 8 8 10 10 6 7 10
16 16 15 16 16 15 16 15 14 14 13 13 13 12 11 12 13 12 12 13 13 13 14 17 17 17 18 16 14 14 13 12 11 8 6 5 4 5 4 3 3 4 3 2 2 2 3 3 3 3 4 6 6 5 1 2 5 2 5 3 5 8 7 7 7 9 7 4 5 5 6 5 8 14 12 9 10 6 7 9 10 11 9 9 11
16 17 16 16 16 17 17 16 14 14 13 13 12 12 11 11 11 11 12 12 12 11 12 16 17 16 17 15 14 14 13 12 10 9 8 6 4 4 4 3 3 4 4 2 2 3 3 3 2 3 4 6 6 6 4 3 5 6 3 1 2 4 5 6 7 6 3 3 3 5 4 7 9 3 5 6 8 3 6 6 7 9 11 11 11
16 17 17 16 16 17 18 17 16 14 13 13 12 12 12 10 9 10 12 12 11 11 12 14 15 16 15 14 13 14 13 11 10 9 8 6 5 5 5 5 3 4 5 3 4 4 4 4 2 1 2 6 4 5 6 4 7 7 1 2 3 1 1 2 4 4 7 4 2 5 3 5 7 5 4 6 5 4 8 4 5 10 13 13 11
17 17 18 17 16 18 18 17 17 15 14 14 13 13 13 9 9 10 11 11 12 12 12 13 14 15 14 13 13 14 13 11 10 10 9 8 6 4 5 5 4 4 4 4 5 5 4 4 3 1 0 4 5 6 6 5 8 6 3 2 3 1 1 4 5 3 7 7 1 2 4 2 8 3 2 10 4 5 6 4 7 11 12 10 9
17 17 18 17 17 18 18 18 17 16 15 15 13 13 13 10 10 11 11 11 12 12 12 13 13 13 14 13 13 13 12 10 11 10 8 8 7 5 5 5 4 4 3 4 3 4 3 3 3 2 0 1 2 6 6 5 9 8 3 3 2 2 3 3 4 1 5 9 5 4 6 4 9 5 2 8 7 3 3 6 9 8 7 7 7
18 18 18 18 18 19 19 18 18 16 16 17 15 14 14 12 11 11 11 11 11 11 11 12 13 13 13 14 13 13 12 10 11 9 7 8 8 6 6 4 4 4 4 3 3 4 3 2 3 2 1 1 1 5 6 6 11 10 5 6 6 5 6 2 1 1 3 7 6 5 5 4 4 5 4 6 5 2 3 5 6 6 5 8 8
17 18 17 17 18 20 20 18 18 16 16 18 16 15 14 13 12 11 11 10 10 10 10 12 13 11 12 14 13 12 12 10 10 9 7 8 8 7 6 5 4 4 4 4 4 5 3 3 4 2 1 2 2 3 4 5 7 6 4 7 8 5 3 2 3 3 1 2 6 5 2 3 4 5 5 4 4 3 5 5 4 4 8 12 11
16 16 16 18 19 20 20 19 18 17 17 19 17 16 15 14 13 12 12 11 10 11 10 10 12 11 11 13 12 13 12 10 9 9 8 7 7 7 6 6 4 4 5 5 5 5 3 3 3 2 2 3 3 2 3 5 4 2 4 6 6 6 5 1 3 4 3 1 3 3 1 3 5 7 5 5 6 4 4 5 5 7 10 14 13
17 15 15 17 19 20 19 19 18 17 18 20 18 16 15 14 14 13 13 13 12 13 12 10 11 12 11 12 11 12 12 11 10 9 9 8 8 7 7 6 5 5 5 5 4 4 4 3 3 4 4 4 3 3 4 5 4 4 5 5 4 4 5 2 2 3 2 1 2 5 4 2 4 7 8 8 6 3 6 6 6 9 10 12 11
18 16 15 17 19 19 19 19 19 17 18 19 18 17 16 15 15 13 14 15 14 15 14 11 11 12 11 12 11 11 11 11 11 10 9 9 9 8 7 6 6 6 5 5 5 4 4 5 5 6 5 5 4 4 5 6 6 6 6 8 8 6 7 3 4 2 3 1 1 4 7 6 6 8 10 9 5 4 7 8 7 9 8 8 8
Wind_Direction
146 139 132 131 123 119 118 115 111 109 110 109 109 108 111 117 114 110 110 111 109 104 101 100 101 102 104 107 110 110 108 115 116 110 110 104 101 107 109 110 108 106 104 101 99 96 95 94 92 90 91 92 93 91 89 94 96 94 93 92 92 93 93 93 94 94 94 93 91 90 90 91 91 92 93 92 91 93 93 93 94 96 96 96 95
153 143 139 134 123 120 121 118 115 112 112 111 110 107 111 119 114 110 112 109 105 101 99 103 104 104 105 110 112 114 114 115 113 109 111 107 107 113 111 110 110 108 107 105 103 100 97 94 93 92 92 92 91 91 92 95 95 95 95 94 92 90 89 89 89 89 90 90 89 89 88 87 87 90 93 92 94 101 102 97 96 96 95 95 95
144 138 142 134 126 124 122 120 118 117 115 113 113 110 115 120 114 111 110 105 98 96 98 103 106 105 105 109 114 118 115 113 114 112 109 108 113 117 113 112 111 109 109 108 106 102 99 95 94 94 93 92 91 92 95 96 97 99 98 95 92 90 88 85 83 85 85 84 83 84 85 84 86 90 94 96 100 104 102 100 99 98 98 97 94
138 137 140 134 130 128 124 123 122 122 119 117 117 114 115 117 114 112 108 105 103 102 105 107 107 104 106 110 115 118 113 112 114 112 109 111 115 115 113 113 112 110 110 109 107 103 99 97 96 95 94 93 92 94 98 100 103 103 100 96 95 93 89 84 81 83 81 78 81 84 86 86 86 87 90 93 94 95 94 95 94 97 100 100 96
138 138 137 132 133 133 128 127 127 126 121 121 120 114 113 115 116 114 108 107 108 112 112 110 107 105 107 108 111 112 111 112 115 113 114 118 116 112 113 114 110 108 109 109 108 105 101 100 100 98 95 94 94 96 100 103 106 105 100 96 96 94 92 87 83 84 84 86 90 89 90 90 88 87 88 89 88 89 90 90 91 93 95 96 97
137 135 134 130 136 140 135 131 132 129 124 123 119 115 115 118 120 118 110 108 108 111 113 109 106 105 104 102 102 107 111 114 116 116 117 121 116 113 112 109 109 111 112 109 107 105 102 102 102 100 97 96 96 99 102 104 106 105 100 98 98 96 97 96 94 93 93 101 100 94 92 91 92 90 90 90 90 89 88 91 92 92 92 91 91
135 135 136 135 138 141 136 133 134 131 128 123 119 118 119 122 123 119 114 112 108 109 113 110 106 105 105 104 104 109 115 113 110 114 121 122 117 116 114 113 117 118 113 108 106 104 103 104 104 102 100 99 100 101 103 104 104 102 100 100 99 96 98 96 96 95 92 101 102 99 96 94 95 93 93 92 91 91 91 93 92 92 91 89 88
137 139 139 138 140 140 136 134 134 132 129 124 120 119 122 124 122 118 116 116 113 114 117 116 113 111 110 110 112 116 114 107 105 112 122 123 121 120 118 123 124 114 109 106 104 103 103 104 104 103 100 99 100 101 101 103 103 102 103 102 97 95 97 89 86 87 89 96 96 99 100 96 96 95 95 94 94 92 89 89 90 92 89 85 87
139 139 137 137 142 142 137 134 134 133 131 126 122 121 124 126 122 119 118 119 122 125 123 121 118 117 114 112 115 119 115 113 118 123 123 123 121 118 118 125 119 110 109 107 105 105 104 103 105 104 101 100 99 99 100 101 103 105 104 101 99 100 96 87 83 83 90 96 93 98 99 95 95 96 97 96 95 93 90 88 90 94 95 96 97
138 137 137 137 142 143 137 136 135 131 129 128 129 127 128 131 127 119 118 124 128 131 126 119 118 119 116 114 116 119 121 122 124 122 120 120 117 118 124 124 115 112 112 110 109 107 107 105 105 104 101 100 100 103 106 106 108 109 106 103 105 103 93 87 88 84 87 95 98 100 101 104 104 99 99 97 95 95 100 105 103 101 100 102 99
136 136 136 138 143 143 139 137 134 131 133 135 135 131 129 139 140 125 127 132 129 134 129 121 120 119 115 113 118 123 127 127 122 119 119 124 124 126 129 119 113 112 111 112 112 111 110 108 107 104 101 101 102 106 110 111 111 111 110 109 104 96 87 82 88 93 94 98 103 101 98 104 106 103 102 101 99 97 99 106 104 101 99 97 94
134 134 136 140 144 143 140 136 132 135 140 140 135 132 130 140 144 131 137 139 131 137 134 126 122 120 118 116 121 126 130 130 126 125 130 137 133 128 122 115 114 112 112 114 114 114 112 110 109 105 102 101 101 103 108 111 111 113 114 108 97 89 85 83 88 98 102 102 101 99 99 102 105 109 109 107 106 103 102 102 100 95 93 93 94
133 133 134 139 141 141 141 139 138 140 145 143 135 135 132 134 139 133 141 137 131 138 133 126 124 124 126 122 123 126 131 131 129 132 139 142 130 121 117 115 115 112 113 114 116 118 115 112 111 109 107 103 99 99 103 108 111 116 118 108 98 96 94 96 98 98 103 104 101 101 104 107 108 112 114 113 111 108 108 105 104 101 94 91 90
134 132 133 136 137 139 142 146 145 144 148 145 138 138 134 134 136 134 138 134 135 141 133 128 126 125 129 127 127 130 133 130 128 134 139 137 126 120 119 117 114 114 113 114 118 119 118 117 116 115 112 106 100 97 98 107 114 120 122 116 111 109 102 100 102 101 106 105 102 108 113 118 114 110 110 108 105 103 104 100 102 105 103 98 92
135 133 135 136 136 137 139 142 141 142 146 142 141 142 141 144 140 134 133 136 142 141 135 135 133 132 133 132 130 131 134 130 129 134 137 134 125 123 122 119 118 117 115 115 119 121 121 120 120 120 116 111 106 99 100 110 121 126 128 126 122 116 104 103 112 110 110 109 112 118 118 127 121 113 112 108 104 99 97 93 90 91 93 99 101
134 135 136 137 137 136 136 137 138 141 142 142 146 147 147 150 142 134 133 138 140 137 136 141 142 143 140 137 136 134 136 133 129 132 136 134 128 128 128 126 125 120 119 118 119 122 124 123 124 124 122 120 114 106 104 113 129 134 130 126 121 114 108 111 128 121 110 116 131 131 121 126 123 119 118 114 109 103 100 98 91 85 83 89 94
134 136 135 137 138 137 137 140 144 141 139 144 150 151 151 147 141 136 135 132 130 136 139 143 147 148 141 140 140 135 136 136 131 133 136 136 135 135 131 128 128 123 121 121 122 124 125 126 127 128 129 127 120 113 108 109 127 138 132 127 121 117 110 96 114 124 113 125 135 126 124 133 134 130 125 119 114 108 102 97 92 90 85 85 85
132 135 135 138 140 139 142 146 148 142 143 150 154 155 151 146 143 138 138 133 132 141 142 149 156 149 144 142 141 135 134 136 136 136 136 140 140 136 133 128 127 123 120 122 125 127 128 129 130 131 132 127 120 118 113 109 121 131 131 127 121 116 111 97 109 130 122 137 150 144 139 149 152 150 139 131 123 116 106 98 95 95 94 88 74
129 132 134 138 139 142 146 148 148 147 148 152 157 157 148 147 145 139 139 139 142 146 146 153 156 150 151 143 139 138 131 132 133 133 140 147 143 138 136 131 128 126 124 126 128 130 130 131 133 134 131 126 122 120 114 113 122 128 128 127 124 122 120 119 132 136 130 144 172 181 170 176 174 171 159 145 138 131 119 121 121 114 111 87 49
130 130 136 140 141 146 150 150 150 150 150 149 153 155 151 153 148 144 145 147 149 151 153 152 150 156 155 141 140 138 127 129 132 136 152 154 148 146 142 138 137 134 132 130 131 133 131 131 133 133 133 128 125 122 114 117 126 129 131 127 118 109 101 125 139 133 134 152 181 194 188 200 198 190 180 169 162 161 155 157 160 166 180 188 97
128 130 136 142 144 148 151 151 154 155 152 147 146 151 152 154 155 158 160 159 156 156 158 149 148 162 156 142 144 139 128 138 145 148 161 158 152 149 143 143 143 138 137 138 139 136 134 135 136 139 141 136 134 131 124 126 133 135 134 127 107 91 72 110 141 140 148 185 214 234 261 223 217 206 198 195 186 182 176 173 171 173 184 180 123
126 132 138 146 146 146 151 151 156 159 152 143 145 148 148 154 164 176 173 163 159 161 160 150 150 163 159 146 146 147 141 150 155 156 163 161 155 150 145 143 143 147 152 153 150 145 143 145 147 148 145 143 145 143 141 131 132 140 139 135 116 101 88 116 128 142 161 195 226 258 267 238 228 215 206 198 186 173 160 156 162 153 149 163 125
127 139 144 152 148 147 151 150 152 156 149 140 146 146 147 160 169 182 180 164 165 164 159 153 151 161 161 149 153 158 152 159 163 164 167 164 158 152 144 136 142 158 163 161 157 154 153 154 155 153 153 162 166 166 177 157 126 139 153 147 126 113 127 136 125 139 167 201 228 262 267 241 234 221 210 199 182 166 169 168 172 172 165 197 259
130 144 150 152 148 148 148 147 147 154 151 139 142 143 147 160 165 179 183 168 166 163 160 154 149 160 161 150 161 162 154 164 172 171 168 161 159 152 140 134 139 145 151 152 153 156 158 160 164 166 174 189 195 192 199 213 196 165 178 162 143 151 152 152 147 148 179 217 227 257 264 243 238 226 214 204 187 175 192 198 189 200 208 234 277
136 149 156 152 150 151 149 149 146 154 151 140 142 139 146 163 168 176 179 171 169 165 163 154 149 164 165 153 161 163 161 171 173 168 161 161 161 151 142 136 132 133 135 135 142 155 160 164 171 183 196 204 217 221 208 213 214 202 207 188 175 181 163 148 145 155 197 226 245 266 255 244 236 226 217 205 191 182 198 209 193 211 245 250 265
142 150 156 154 152 153 155 152 148 155 145 140 143 138 149 170 175 176 172 171 173 169 165 158 155 163 166 158 159 165 172 175 169 162 160 168 169 158 157 151 140 139 135 137 162 166 163 170 193 222 230 222 228 233 215 215 211 189 177 173 179 175 157 149 146 168 217 228 254 264 244 242 233 228 221 203 196 190 199 207 192 214 268 280 263
139 148 154 158 159 156 156 151 152 158 144 140 139 137 149 162 171 172 164 165 171 170 166 166 161 158 164 163 163 170 172 172 168 166 168 174 179 175 172 170 176 169 145 160 190 185 173 189 230 250 249 242 233 213 197 206 196 171 146 153 178 163 163 156 146 181 229 235 234 251 245 244 232 228 227 213 206 203 208 213 214 221 244 273 271
137 150 155 160 164 153 151 152 154 155 146 146 144 142 144 151 170 171 156 156 162 161 160 167 164 156 163 164 165 172 168 169 173 174 175 178 184 181 171 176 193 193 167 178 196 196 193 206 240 253 255 260 231 191 177 166 168 166 146 153 179 186 185 157 150 190 211 197 164 233 249 245 243 232 235 234 220 218 223 223 231 235 241 261 266
143 155 158 160 159 146 146 149 150 150 147 149 147 145 142 148 170 174 160 159 160 160 158 163 163 157 161 164 164 168 165 169 178 177 176 182 184 181 180 184 193 188 182 194 196 194 204 209 228 240 240 281 209 185 176 163 169 172 164 157 154 172 176 150 157 182 185 167 126 87 312 254 258 241 235 244 235 232 236 234 236 237 242 251 258
150 159 159 154 153 149 149 150 153 154 149 147 145 143 141 148 165 167 161 161 161 165 163 161 162 159 160 163 163 164 166 172 182 182 177 183 182 183 187 183 184 183 186 189 179 187 195 189 207 232 213 212 232 190 175 197 186 164 169 163 151 156 160 155 160 161 170 181 111 76 46 281 256 241 234 235 236 236 232 229 231 233 236 240 254
153 160 153 148 155 155 152 152 154 154 147 146 147 141 138 148 163 158 154 157 159 162 164 164 165 162 160 163 163 165 173 178 187 191 180 181 188 186 182 179 182 182 179 170 172 199 193 177 193 224 214 208 240 203 187 230 201 156 160 154 148 157 163 165 162 155 161 171 114 75 80 115 222 222 223 225 225 223 219 220 223 227 233 244 257
154 156 149 147 153 154 151 151 150 151 145 142 146 142 140 148 156 154 152 159 160 158 160 163 165 165 164 163 164 168 175 176 178 187 182 181 188 182 179 182 176 171 173 168 182 198 183 191 185 188 203 207 248 231 170 252 228 162 160 150 156 167 173 173 161 150 149 159 152 102 92 114 179 189 199 207 215 215 213 214 215 221 227 242 264
149 148 150 144 142 146 149 148 147 149 145 141 143 142 141 145 151 157 161 162 161 159 158 160 162 165 164 161 160 165 177 175 168 179 185 181 183 178 178 179 166 171 176 159 178 183 165 197 180 212 245 224 240 219 187 209 173 167 158 140 146 151 164 170 154 141 141 156 177 154 109 115 138 141 167 183 209 223 224 221 219 224 232 242 266
142 147 154 142 139 146 149 146 147 148 144 143 143 140 141 145 150 159 163 160 159 161 160 161 161 163 164 159 148 157 175 171 162 181 188 179 180 182 177 172 168 172 163 151 172 179 194 204 206 261 278 309 249 210 211 198 162 175 166 140 146 162 164 149 140 144 148 154 166 184 169 133 136 133 149 149 175 235 239 239 237 235 242 253 264
144 154 152 143 144 148 148 146 147 147 144 145 144 142 142 143 146 153 158 156 155 156 158 160 158 161 166 160 144 148 163 164 173 193 187 175 178 182 175 169 172 166 163 182 186 182 219 201 204 292 218 289 268 231 224 182 162 172 152 136 151 180 162 123 135 153 151 149 153 170 179 171 180 176 181 178 169 245 255 250 251 251 255 262 269
152 154 146 144 146 145 148 148 147 146 143 144 143 143 142 142 147 153 157 155 151 149 153 158 155 160 169 163 151 149 163 181 191 188 176 178 180 176 173 167 171 167 167 188 187 179 215 179 134 317 178 226 283 255 228 173 164 156 143 140 140 146 128 119 174 167 153 155 157 165 174 186 204 209 221 238 233 232 275 273 264 268 279 285 290
154 149 143 145 143 145 151 149 147 144 141 140 140 143 145 149 153 154 153 152 150 146 152 161 158 161 166 162 160 159 171 186 186 177 177 181 181 174 166 164 175 179 168 174 177 173 181 179 157 332 263 316 303 257 222 196 167 156 172 157 131 136 133 142 202 157 151 160 170 182 187 190 192 203 217 235 255 244 254 288 290 299 307 313 309
152 148 148 147 142 148 151 148 147 143 139 140 140 142 145 152 152 150 153 155 159 159 161 166 161 162 164 162 166 166 171 177 170 174 177 172 177 176 159 160 171 171 174 184 199 188 177 178 171 321 274 294 310 306 288 243 181 161 172 157 129 143 157 156 131 132 150 168 184 186 186 197 190 188 208 217 239 252 265 281 279 279 286 307 314
153 151 149 145 143 147 147 147 148 143 141 141 141 141 145 154 149 146 151 156 163 166 165 162 158 160 162 160 163 164 169 171 163 160 157 160 167 154 150 163 160 163 187 198 198 201 186 179 190 224 267 282 284 297 290 260 252 175 144 144 141 169 199 166 147 180 180 183 203 192 183 195 194 193 213 215 225 240 245 267 279 266 275 298 310
156 151 147 145 143 143 145 150 152 146 144 145 145 146 150 155 150 145 148 153 160 161 157 155 153 154 155 155 159 163 167 169 164 155 143 166 169 143 152 168 154 168 207 205 193 205 200 200 237 241 273 278 260 252 225 242 286 330 105 144 148 165 208 167 199 222 196 186 204 219 206 193 194 200 209 216 221 236 237 251 280 271 281 279 275
154 151 151 150 146 147 150 155 156 151 151 154 153 153 156 154 151 149 149 149 153 153 151 151 150 151 152 154 158 162 166 168 168 162 138 155 163 149 157 164 155 171 199 187 168 187 190 203 267 262 277 288 280 270 231 256 313 120 163 249 161 161 193 186 233 228 210 204 189 213 243 199 201 201 196 220 218 227 246 258 279 270 269 267 264
155 157 159 154 152 154 155 158 159 158 159 161 159 157 156 154 155 155 150 145 148 153 149 145 145 149 152 155 159 162 165 169 172 171 158 159 167 154 157 168 156 163 180 155 138 180 193 221 293 277 284 317 307 304 278 252 311 259 206 246 176 175 190 197 237 228 203 220 210 218 232 231 235 201 192 231 214 215 270 267 271 255 250 270 268
160 164 163 159 157 156 157 161 163 165 166 164 163 160 156 159 157 153 147 143 150 153 141 140 144 148 153 156 163 166 165 170 178 174 168 181 189 164 164 179 160 157 172 166 193 207 214 238 303 292 292 329 301 296 317 254 307 310 225 226 214 180 189 213 254 258 155 150 267 325 293 307 343 137 173 265 214 220 305 262 257 254 255 273 271
166 168 165 165 162 157 159 164 165 168 169 166 166 162 160 162 150 147 147 142 150 149 137 141 145 148 154 158 165 169 166 171 183 181 178 188 180 164 172 178 173 165 169 176 198 208 221 231 261 299 331 360 331 316 343 338 343 343 345 335 297 137 115 262 295 328 32 61 207 17 329 286 10 74 54 353 228 269 324 269 270 279 266 266 267
171 172 169 170 167 161 164 167 167 169 169 168 169 164 161 155 136 146 150 141 149 151 143 145 149 154 157 160 167 172 172 175 181 183 184 181 170 176 174 164 180 179 179 198 203 207 215 219 230 224 283 14 355 337 343 345 347 327 273 320 316 68 64 338 360 354 6 4 266 11 273 261 34 65 54 18 340 300 330 324 313 285 255 256 269
177 176 172 173 168 164 166 167 168 169 169 170 171 165 163 159 145 148 150 146 151 155 155 154 157 163 161 162 169 171 177 179 178 184 184 174 168 183 179 166 183 184 200 219 210 214 210 207 209 180 213 28 18 342 335 345 354 346 312 293 290 91 90 350 6 327 335 348 336 325 295 322 23 24 22 2 345 337 324 318 326 300 246 253 269
179 179 176 174 168 165 167 169 170 170 169 169 171 168 166 168 162 157 154 155 158 158 161 159 162 170 161 161 169 172 181 182 177 182 174 167 173 181 184 186 185 179 204 221 209 215 208 197 195 150 43 326 48 354 352 356 353 1 9 335 330 51 68 55 92 142 328 340 329 319 316 322 358 357 334 323 328 344 282 291 335 344 298 283 283
180 180 178 172 165 165 168 170 171 171 170 170 172 172 172 173 172 168 163 163 161 159 161 158 163 171 159 162 172 174 182 184 179 180 169 175 183 178 185 197 199 191 198 212 212 212 196 171 180 164 216 283 342 340 339 337 341 4 25 359 347 354 30 93 136 116 125 334 323 306 319 360 341 325 308 287 301 302 277 282 303 316 296 297 304
183 182 177 169 163 166 169 171 173 173 172 172 173 175 175 176 176 173 168 168 165 159 163 161 163 171 164 169 179 175 179 185 183 184 181 188 190 183 194 199 201 201 200 213 210 198 190 170 172 193 227 260 302 288 297 314 325 2 353 351 341 323 334 23 139 113 120 192 302 307 354 5 329 319 297 278 295 299 292 292 271 265 280 289 291
180 182 175 170 164 165 171 172 175 176 175 174 174 176 176 177 180 177 169 172 172 163 168 170 165 171 172 174 181 177 179 186 189 191 190 193 195 194 203 203 203 213 211 218 213 190 196 207 199 204 220 237 252 256 279 298 293 296 309 299 286 299 302 271 146 92 60 199 271 306 325 333 305 308 308 299 297 304 309 304 269 260 274 285 283
174 174 170 172 167 166 173 174 175 179 177 176 177 177 178 179 183 182 174 176 177 166 168 175 170 175 180 178 181 181 184 190 192 196 196 199 202 201 207 210 209 213 213 217 222 211 211 231 226 208 217 234 237 258 273 280 284 282 284 278 275 273 262 241 93 51 287 242 285 302 306 316 305 301 314 310 283 277 296 304 293 270 268 286 288